GLO2009 SBBE-SBGL

Flight info

Callsign GLO2009
Flight time N/A
Altitude 36000
Route ILSAT UZ3 NECTO DCT NITGI DCT MALMO DCT MAVGU
Aircraft B738/M-SDE2E3FGHIRWXY/LB1

Departure

Time 2026-05-09 21:34
Airport Val de Cans/Júlio Cezar Ribeiro International Airport (SBBE)

Arrival

Time N/A
Airport Rio Galeão – Tom Jobim International Airport (SBGL)
Time Latitude Longitude Altitude Speed Heading
2026-05-09 20:54 -1.38734 -48.47867 44 ft 0 kts 311°
2026-05-09 21:23 -1.38741 -48.47858 43 ft 2 kts 308°
2026-05-09 21:24 -1.38751 -48.47846 43 ft 2 kts 309°
2026-05-09 21:24 -1.38760 -48.47834 43 ft 2 kts 309°
2026-05-09 21:24 -1.38770 -48.47823 43 ft 2 kts 309°
2026-05-09 21:24 -1.38779 -48.47811 43 ft 2 kts 309°
2026-05-09 21:25 -1.38789 -48.47799 43 ft 2 kts 309°
2026-05-09 21:25 -1.38794 -48.47793 43 ft 0 kts 335°
2026-05-09 21:25 -1.38795 -48.47792 43 ft 1 kts 352°
2026-05-09 21:25 -1.38787 -48.47792 43 ft 1 kts
2026-05-09 21:26 -1.38785 -48.47792 43 ft 0 kts
2026-05-09 21:28 -1.38784 -48.47792 43 ft 1 kts
2026-05-09 21:29 -1.38742 -48.47789 43 ft 9 kts
2026-05-09 21:29 -1.38676 -48.47815 43 ft 12 kts 280°
2026-05-09 21:29 -1.38676 -48.47922 44 ft 18 kts 268°
2026-05-09 21:29 -1.38678 -48.48071 44 ft 23 kts 270°
2026-05-09 21:30 -1.38691 -48.48225 45 ft 20 kts 236°
2026-05-09 21:30 -1.38805 -48.48338 45 ft 23 kts 223°
2026-05-09 21:30 -1.38814 -48.48386 44 ft 0 kts 260°
2026-05-09 21:30 -1.38814 -48.48387 44 ft 0 kts 260°
2026-05-09 21:32 -1.38815 -48.48390 44 ft 2 kts 260°
2026-05-09 21:32 -1.38819 -48.48436 44 ft 10 kts 271°
2026-05-09 21:32 -1.38770 -48.48460 44 ft 10 kts 41°
2026-05-09 21:33 -1.38729 -48.48417 45 ft 0 kts 46°
2026-05-09 21:33 -1.38728 -48.48416 45 ft 2 kts 46°
2026-05-09 21:33 -1.38570 -48.48255 45 ft 68 kts 46°
2026-05-09 21:34 -1.38069 -48.47749 46 ft 132 kts 46°
2026-05-09 21:34 -1.37289 -48.46982 132 ft 174 kts 47°
2026-05-09 21:34 -1.36438 -48.46119 815 ft 176 kts 50°
2026-05-09 21:34 -1.35636 -48.45242 1716 ft 173 kts 56°
2026-05-09 21:35 -1.35274 -48.44094 2215 ft 183 kts 95°
2026-05-09 21:35 -1.35766 -48.42897 2717 ft 197 kts 127°
2026-05-09 21:35 -1.36852 -48.42011 3241 ft 212 kts 152°
2026-05-09 21:35 -1.38360 -48.41655 3742 ft 231 kts 172°
2026-05-09 21:36 -1.40041 -48.41562 3999 ft 250 kts 174°
2026-05-09 21:36 -1.41853 -48.41443 3983 ft 262 kts 172°
2026-05-09 21:36 -1.43671 -48.41273 3980 ft 264 kts 171°
2026-05-09 21:36 -1.45522 -48.41076 3975 ft 264 kts 171°
2026-05-09 21:37 -1.47369 -48.40874 3975 ft 264 kts 170°
2026-05-09 21:37 -1.49211 -48.40674 3984 ft 263 kts 171°
2026-05-09 21:37 -1.51053 -48.40477 4246 ft 264 kts 170°
2026-05-09 21:37 -1.52885 -48.40282 4705 ft 266 kts 171°
2026-05-09 21:38 -1.54767 -48.40082 5188 ft 267 kts 171°
2026-05-09 21:38 -1.56628 -48.39885 5671 ft 269 kts 171°
2026-05-09 21:38 -1.58513 -48.39685 6154 ft 271 kts 170°
2026-05-09 21:38 -1.60393 -48.39484 6634 ft 272 kts 170°
2026-05-09 21:39 -1.62315 -48.39276 7120 ft 275 kts 169°
2026-05-09 21:39 -1.64238 -48.38995 7620 ft 281 kts 166°
2026-05-09 21:39 -1.66171 -48.38646 8383 ft 283 kts 165°
2026-05-09 21:39 -1.68129 -48.38276 9112 ft 287 kts 165°
2026-05-09 21:40 -1.70121 -48.37909 9781 ft 292 kts 166°
2026-05-09 21:40 -1.72148 -48.37547 10384 ft 300 kts 166°
2026-05-09 21:40 -1.74283 -48.37172 10745 ft 317 kts 166°
2026-05-09 21:40 -1.76513 -48.36786 11119 ft 332 kts 166°
2026-05-09 21:41 -1.78866 -48.36380 11539 ft 344 kts 167°
2026-05-09 21:41 -1.81275 -48.35961 12110 ft 350 kts 166°
2026-05-09 21:41 -1.83716 -48.35514 12712 ft 355 kts 166°
2026-05-09 21:41 -1.86173 -48.35045 13309 ft 360 kts 166°
2026-05-09 21:42 -1.88660 -48.34562 13894 ft 364 kts 166°
2026-05-09 21:42 -1.91204 -48.34069 14492 ft 368 kts 166°
2026-05-09 21:42 -1.93766 -48.33575 15039 ft 374 kts 166°
2026-05-09 21:42 -1.96372 -48.33075 15638 ft 377 kts 166°
2026-05-09 21:43 -1.98990 -48.32580 16157 ft 382 kts 166°
2026-05-09 21:43 -2.01644 -48.32093 16723 ft 385 kts 166°
2026-05-09 21:43 -2.04299 -48.31604 17218 ft 390 kts 166°
2026-05-09 21:43 -2.06982 -48.31023 17739 ft 392 kts 163°
2026-05-09 21:44 -2.09650 -48.30365 18288 ft 394 kts 162°
2026-05-09 21:44 -2.12384 -48.29656 18821 ft 396 kts 162°
2026-05-09 21:44 -2.15085 -48.28950 19295 ft 399 kts 162°
2026-05-09 21:44 -2.17835 -48.28241 19790 ft 402 kts 163°
2026-05-09 21:45 -2.20584 -48.27542 20265 ft 405 kts 163°
2026-05-09 21:45 -2.23371 -48.26841 20719 ft 408 kts 163°
2026-05-09 21:45 -2.26131 -48.26152 21239 ft 408 kts 163°
2026-05-09 21:45 -2.28912 -48.25460 21645 ft 411 kts 163°
2026-05-09 21:46 -2.31733 -48.24759 22082 ft 414 kts 163°
2026-05-09 21:46 -2.34527 -48.24066 22505 ft 416 kts 163°
2026-05-09 21:46 -2.37391 -48.23355 22922 ft 419 kts 163°
2026-05-09 21:46 -2.40238 -48.22648 23352 ft 422 kts 163°
2026-05-09 21:47 -2.43130 -48.21930 23766 ft 424 kts 164°
2026-05-09 21:47 -2.46027 -48.21212 24175 ft 427 kts 164°
2026-05-09 21:47 -2.48911 -48.20496 24580 ft 429 kts 164°
2026-05-09 21:47 -2.51853 -48.19767 24974 ft 432 kts 164°
2026-05-09 21:48 -2.54831 -48.19028 25354 ft 435 kts 165°
2026-05-09 21:48 -2.57769 -48.18299 25732 ft 437 kts 165°
2026-05-09 21:48 -2.60756 -48.17558 26115 ft 439 kts 165°
2026-05-09 21:48 -2.63755 -48.16814 26489 ft 441 kts 165°
2026-05-09 21:49 -2.66743 -48.16073 26846 ft 443 kts 165°
2026-05-09 21:49 -2.69770 -48.15322 27188 ft 446 kts 165°
2026-05-09 21:49 -2.72819 -48.14572 27532 ft 448 kts 165°
2026-05-09 21:49 -2.75870 -48.13825 27869 ft 451 kts 165°
2026-05-09 21:50 -2.78950 -48.13073 28195 ft 453 kts 166°
2026-05-09 21:50 -2.82005 -48.12326 28512 ft 455 kts 166°
2026-05-09 21:50 -2.88243 -48.10802 29148 ft 460 kts 166°
2026-05-09 21:51 -2.91375 -48.10035 29444 ft 463 kts 166°
2026-05-09 21:51 -2.94553 -48.09257 29774 ft 465 kts 166°
2026-05-09 21:51 -2.97693 -48.08489 30125 ft 466 kts 166°
2026-05-09 21:51 -3.00868 -48.07711 30715 ft 461 kts 166°
2026-05-09 21:52 -3.04032 -48.06936 31219 ft 458 kts 167°
2026-05-09 21:52 -3.07128 -48.06177 31617 ft 457 kts 167°
2026-05-09 21:52 -3.10215 -48.05421 31976 ft 457 kts 167°
2026-05-09 21:52 -3.13402 -48.04642 32358 ft 456 kts 167°
2026-05-09 21:53 -3.16491 -48.03885 32710 ft 456 kts 167°
2026-05-09 21:53 -3.19617 -48.03119 33183 ft 453 kts 167°
2026-05-09 21:53 -3.22724 -48.02358 33667 ft 451 kts 167°
2026-05-09 21:54 -3.28814 -48.00864 34506 ft 447 kts 167°
2026-05-09 21:54 -3.31858 -48.00118 34921 ft 445 kts 167°
2026-05-09 21:54 -3.34853 -47.99385 35294 ft 443 kts 168°
2026-05-09 21:54 -3.37870 -47.98646 35606 ft 443 kts 168°
2026-05-09 21:55 -3.40880 -47.97908 35911 ft 442 kts 168°
2026-05-09 21:55 -3.43927 -47.97161 35916 ft 444 kts 168°
2026-05-09 21:55 -3.49934 -47.95686 35920 ft 444 kts 168°
2026-05-09 21:56 -3.55990 -47.94176 35921 ft 441 kts 167°
2026-05-09 21:56 -3.62000 -47.92645 35931 ft 442 kts 167°
2026-05-09 21:57 -3.68026 -47.91106 35941 ft 442 kts 167°
2026-05-09 21:57 -3.74003 -47.89581 35944 ft 442 kts 167°
2026-05-09 21:58 -3.80022 -47.88048 35943 ft 443 kts 167°
2026-05-09 21:58 -3.86073 -47.86508 35936 ft 443 kts 167°
2026-05-09 21:59 -3.92066 -47.84983 35928 ft 442 kts 167°
2026-05-09 21:59 -3.98094 -47.83449 35927 ft 444 kts 167°
2026-05-09 22:00 -4.04104 -47.81920 35930 ft 442 kts 167°
2026-05-09 22:00 -4.10137 -47.80386 35933 ft 443 kts 167°
2026-05-09 22:01 -4.16196 -47.78844 35935 ft 443 kts 167°
2026-05-09 22:01 -4.22204 -47.77314 35936 ft 444 kts 167°
2026-05-09 22:02 -4.28229 -47.75781 35938 ft 445 kts 167°
2026-05-09 22:02 -4.34254 -47.74248 35938 ft 445 kts 167°
2026-05-09 22:03 -4.40329 -47.72701 35939 ft 443 kts 167°
2026-05-09 22:03 -4.46333 -47.71182 35942 ft 444 kts 168°
2026-05-09 22:04 -4.52369 -47.69693 35942 ft 443 kts 168°
2026-05-09 22:04 -4.58422 -47.68207 35947 ft 444 kts 168°
2026-05-09 22:05 -4.64473 -47.66720 35948 ft 446 kts 168°
2026-05-09 22:05 -4.70471 -47.65241 35953 ft 443 kts 168°
2026-05-09 22:06 -4.76520 -47.63748 35957 ft 445 kts 168°
2026-05-09 22:06 -4.82597 -47.62249 35957 ft 444 kts 168°
2026-05-09 22:07 -4.88635 -47.60758 35959 ft 445 kts 168°
2026-05-09 22:07 -4.94657 -47.59270 35959 ft 442 kts 168°
2026-05-09 22:08 -5.00724 -47.57771 35960 ft 445 kts 168°
2026-05-09 22:08 -5.06788 -47.56273 35956 ft 444 kts 168°
2026-05-09 22:09 -5.12861 -47.54770 35952 ft 442 kts 167°
2026-05-09 22:09 -5.18897 -47.53278 35947 ft 443 kts 168°
2026-05-09 22:10 -5.24922 -47.51788 35942 ft 442 kts 168°
2026-05-09 22:10 -5.30966 -47.50293 35938 ft 444 kts 168°
2026-05-09 22:11 -5.36989 -47.48803 35936 ft 444 kts 168°
2026-05-09 22:11 -5.43061 -47.47301 35934 ft 444 kts 168°
2026-05-09 22:12 -5.49112 -47.45805 35932 ft 444 kts 168°
2026-05-09 22:12 -5.55173 -47.44318 35928 ft 444 kts 168°
2026-05-09 22:13 -5.61243 -47.42907 35933 ft 444 kts 169°
2026-05-09 22:13 -5.67353 -47.41513 35932 ft 444 kts 169°
2026-05-09 22:14 -5.73413 -47.40128 35937 ft 444 kts 169°
2026-05-09 22:14 -5.79494 -47.38728 35940 ft 444 kts 169°
2026-05-09 22:15 -5.85564 -47.37324 35946 ft 443 kts 169°
2026-05-09 22:15 -5.91619 -47.35921 35948 ft 443 kts 169°
2026-05-09 22:16 -5.97784 -47.34493 35949 ft 445 kts 169°
2026-05-09 22:16 -6.03855 -47.33083 35950 ft 443 kts 169°
2026-05-09 22:17 -6.09949 -47.31670 35947 ft 445 kts 169°
2026-05-09 22:17 -6.16073 -47.30249 35943 ft 445 kts 169°
2026-05-09 22:18 -6.22145 -47.28840 35940 ft 444 kts 169°
2026-05-09 22:18 -6.27063 -47.27699 35940 ft 444 kts 169°
2026-05-09 22:19 -6.33131 -47.26290 35942 ft 446 kts 169°
2026-05-09 22:19 -6.39189 -47.24883 35942 ft 444 kts 169°
2026-05-09 22:20 -6.45261 -47.23474 35944 ft 445 kts 169°
2026-05-09 22:20 -6.51346 -47.22060 35940 ft 445 kts 169°
2026-05-09 22:21 -6.57431 -47.20645 35941 ft 445 kts 169°
2026-05-09 22:21 -6.63485 -47.19237 35953 ft 445 kts 169°
2026-05-09 22:22 -6.69584 -47.17819 35961 ft 445 kts 169°
2026-05-09 22:22 -6.74717 -47.16626 35963 ft 446 kts 169°
2026-05-09 22:23 -6.80755 -47.15222 35968 ft 446 kts 168°
2026-05-09 22:23 -6.86825 -47.13808 35965 ft 446 kts 169°
2026-05-09 22:24 -6.92958 -47.12381 35960 ft 445 kts 169°
2026-05-09 22:24 -6.99006 -47.10973 35964 ft 446 kts 169°
2026-05-09 22:25 -7.05065 -47.09562 35967 ft 445 kts 169°
2026-05-09 22:25 -7.11130 -47.08149 35971 ft 446 kts 168°
2026-05-09 22:26 -7.17242 -47.06725 35975 ft 446 kts 169°
2026-05-09 22:26 -7.23298 -47.05314 35978 ft 445 kts 168°
2026-05-09 22:27 -7.29365 -47.03899 35979 ft 446 kts 168°
2026-05-09 22:27 -7.35452 -47.02480 35976 ft 446 kts 168°
2026-05-09 22:28 -7.41540 -47.01060 35974 ft 446 kts 168°
2026-05-09 22:28 -7.47604 -46.99645 35973 ft 447 kts 168°
2026-05-09 22:29 -7.53688 -46.98224 35972 ft 447 kts 168°
2026-05-09 22:29 -7.59789 -46.96800 35973 ft 446 kts 168°
2026-05-09 22:30 -7.65852 -46.95384 35975 ft 447 kts 168°
2026-05-09 22:30 -7.71958 -46.93957 35979 ft 447 kts 168°
2026-05-09 22:31 -7.78041 -46.92536 35978 ft 447 kts 168°
2026-05-09 22:31 -7.84161 -46.91106 35980 ft 448 kts 168°
2026-05-09 22:32 -7.90253 -46.89682 35978 ft 448 kts 168°
2026-05-09 22:32 -7.96348 -46.88257 35979 ft 446 kts 168°
2026-05-09 22:33 -8.02419 -46.86837 35979 ft 448 kts 168°
2026-05-09 22:33 -8.08525 -46.85408 35983 ft 446 kts 168°
2026-05-09 22:34 -8.14681 -46.83966 35984 ft 448 kts 168°
2026-05-09 22:34 -8.20764 -46.82542 35992 ft 447 kts 168°
2026-05-09 22:35 -8.26895 -46.81105 35999 ft 448 kts 168°
2026-05-09 22:35 -8.33021 -46.79670 35999 ft 448 kts 168°
2026-05-09 22:36 -8.39128 -46.78239 36001 ft 448 kts 168°
2026-05-09 22:36 -8.45243 -46.76806 36003 ft 447 kts 168°
2026-05-09 22:37 -8.51335 -46.75377 36005 ft 448 kts 168°
2026-05-09 22:37 -8.57452 -46.73941 36005 ft 448 kts 168°
2026-05-09 22:38 -8.63541 -46.72514 36009 ft 449 kts 168°
2026-05-09 22:39 -8.72712 -46.70359 36007 ft 447 kts 168°
2026-05-09 22:39 -8.78831 -46.68921 36014 ft 449 kts 168°
2026-05-09 22:40 -8.88073 -46.66749 36028 ft 449 kts 168°
2026-05-09 22:40 -8.94248 -46.65296 36031 ft 448 kts 169°
2026-05-09 22:41 -9.00392 -46.63849 36034 ft 448 kts 169°
2026-05-09 22:41 -9.06549 -46.62398 36037 ft 448 kts 168°
2026-05-09 22:42 -9.12708 -46.60947 36034 ft 449 kts 168°
2026-05-09 22:42 -9.18874 -46.59493 36032 ft 449 kts 168°
2026-05-09 22:43 -9.25043 -46.58039 36033 ft 450 kts 168°
2026-05-09 22:43 -9.31190 -46.56589 36031 ft 449 kts 169°
2026-05-09 22:44 -9.37327 -46.55141 36031 ft 449 kts 168°
2026-05-09 22:44 -9.43479 -46.53688 36034 ft 449 kts 168°
2026-05-09 22:45 -9.49642 -46.52233 36040 ft 449 kts 168°
2026-05-09 22:45 -9.55814 -46.50775 36039 ft 449 kts 168°
2026-05-09 22:46 -9.62000 -46.49312 36039 ft 449 kts 168°
2026-05-09 22:47 -9.71251 -46.47125 36036 ft 449 kts 168°
2026-05-09 22:47 -9.77376 -46.45676 36035 ft 450 kts 168°
2026-05-09 22:48 -9.83561 -46.44212 36037 ft 450 kts 168°
2026-05-09 22:48 -9.89672 -46.42765 36050 ft 450 kts 168°
2026-05-09 22:49 -9.95863 -46.41299 36061 ft 452 kts 168°
2026-05-09 22:49 -10.02081 -46.39825 36066 ft 448 kts 168°
2026-05-09 22:50 -10.08238 -46.38366 36064 ft 450 kts 168°
2026-05-09 22:50 -10.14448 -46.36893 36067 ft 450 kts 168°
2026-05-09 22:51 -10.20632 -46.35426 36065 ft 451 kts 168°
2026-05-09 22:51 -10.26827 -46.33958 36064 ft 450 kts 168°
2026-05-09 22:52 -10.32994 -46.32497 36067 ft 449 kts 168°
2026-05-09 22:52 -10.39219 -46.31023 36068 ft 452 kts 168°
2026-05-09 22:53 -10.45406 -46.29555 36067 ft 449 kts 168°
2026-05-09 22:53 -10.51554 -46.28097 36068 ft 449 kts 168°
2026-05-09 22:54 -10.57698 -46.26639 36070 ft 449 kts 168°
2026-05-09 22:54 -10.63829 -46.25183 36072 ft 449 kts 168°
2026-05-09 22:55 -10.69978 -46.23723 36079 ft 449 kts 168°
2026-05-09 22:55 -10.76106 -46.22266 36085 ft 449 kts 168°
2026-05-09 22:56 -10.82245 -46.20806 36090 ft 449 kts 168°
2026-05-09 22:56 -10.88399 -46.19343 36099 ft 449 kts 168°
2026-05-09 22:57 -10.94579 -46.17873 36103 ft 450 kts 168°
2026-05-09 22:57 -11.00730 -46.16410 36119 ft 449 kts 168°
2026-05-09 22:58 -11.06880 -46.14945 36124 ft 449 kts 168°
2026-05-09 22:58 -11.13039 -46.13477 36115 ft 448 kts 168°
2026-05-09 22:59 -11.19202 -46.12007 36111 ft 449 kts 168°
2026-05-09 22:59 -11.25334 -46.10545 36114 ft 450 kts 168°
2026-05-09 23:00 -11.31494 -46.09076 36118 ft 449 kts 168°
2026-05-09 23:00 -11.37621 -46.07613 36125 ft 449 kts 168°
2026-05-09 23:01 -11.43764 -46.06146 36127 ft 448 kts 168°
2026-05-09 23:01 -11.49893 -46.04682 36126 ft 450 kts 168°
2026-05-09 23:02 -11.56053 -46.03210 36134 ft 449 kts 168°
2026-05-09 23:02 -11.62167 -46.01749 36138 ft 449 kts 168°
2026-05-09 23:03 -11.68322 -46.00283 36143 ft 449 kts 168°
2026-05-09 23:03 -11.74505 -45.98812 36149 ft 448 kts 168°
2026-05-09 23:04 -11.80669 -45.97344 36151 ft 448 kts 168°